sat.trackr.live / text

‹ back to catalog

STARLINK-3304

NORAD 50161 · 2021-125F

PAYLOAD ACTIVE UNKNOWN

§ Identity

Operator
Country
US
Launch date
2021-12-18
Launch site
AFWTR
Launch vehicle
Mass (kg)
RCS (m²)

Purposes: comms

External: N2YO · Heavens-Above · Gunter

§ Orbital elements

Epoch: 2026-05-25T01:55:36.873696Z

Period
95.44 min
Inclination
53.2142°
Eccentricity
0.0001090
Mean motion
15.08837741 rev/d
Perigee alt
539.0 km
Apogee alt
540.5 km
Semi-major
6,917.9 km
B*
3.8950e-5
RAAN
276.1887°
Arg perigee
91.7972°
Mean anomaly
268.3145°
Rev number
24,798

§ Raw data

STARLINK-33041 50161U 21125F   26145.08028789  .00000332  00000+0  38950-4 0  99902 50161  53.2142 276.1887 0001090  91.7972 268.3145 15.08837741247989

JSON: /api/v1/satellites/50161 · /tle

For live sub-satellite position, see the globe view (requires WebGL).

§ Visibility from observer

Set your observer location to see the next 7 days of passes ≥ 10°. The values pass through the URL so the page stays shareable.

No JS? Fill the form by hand. The geolocation button needs JavaScript.